Tracking 18844 objects as of 21-Nov-2017
HD Live streaming from Space Station
objects crossing your sky now

BSAT-3A

Track BSAT-3A now!
BSAT-3A is classified as:


NORAD ID: 32019
Int'l Code: 2007-036B
Perigee: 35,774.3 km
Apogee: 35,812.8 km
Inclination: 0.0 °
Period: 1,436.1 minutes
Semi major axis: 42164 km
RCS: 12.5893 m2 (large)
Launch date: August 14, 2007
Source: Japan (JPN)
Launch site: FRENCH GUIANA (FRGUI)

BSAT-3a, is a 4,365-pound satellite for the Broadcasting Satellite System Corp. of Japan.
aabbcc
Your satellite tracking list
Your tracking list is empty




NASA's NSSDC Master Catalog

Two Line Element Set (TLE):
1 32019U 07036B   17324.52878946 -.00000348 +00000-0 +00000-0 0  9993
2 32019 000.0470 235.1612 0004575 357.0968 127.7284 01.00272448019107
Source of the keplerian elements: AFSPC